Overview Statistics Trail Chart Weather Telemetry Raw packets
 

This is the latest recevied weather packets stored in our database for station/object DG9VH-13. If no packets are shown the sender has not sent any weather packets the latest 10 day(s).

<< 26 27 28 29 30 31 32 >>
Time Temp. Humidity Pressure Rain* Wind** Luminosity Snow
1788306001 16.67° C 70% 1004.2 hPa - - - -
1788305402 16.67° C 69% 1004.4 hPa - - - -
1788304801 16.67° C 69% 1004.3 hPa - - - -
1788304201 16.67° C 70% 1004.2 hPa - - - -
1788303601 17.22° C 69% 1004.3 hPa - - - -
1788303003 17.22° C 70% 1004.2 hPa - - - -
1788302401 17.22° C 69% 1004.3 hPa - - - -
1788301802 17.22° C 69% 1004.3 hPa - - - -
1788301202 17.22° C 69% 1004.4 hPa - - - -
1788300601 17.22° C 69% 1004.4 hPa - - - -
1788300002 17.22° C 69% 1004.4 hPa - - - -
1788299402 17.78° C 68% 1004.2 hPa - - - -
1788298801 17.78° C 68% 1004.2 hPa - - - -
1788298201 17.78° C 68% 1004.1 hPa - - - -
1788297602 17.78° C 68% 1004 hPa - - - -
1788297002 17.78° C 67% 1004 hPa - - - -
1788296401 18.33° C 67% 1004.1 hPa - - - -
1788295801 18.33° C 66% 1004 hPa - - - -
1788295202 18.89° C 66% 1004 hPa - - - -
1788294601 18.33° C 66% 1004 hPa - - - -
1788294002 18.89° C 65% 1004.1 hPa - - - -
1788293402 18.89° C 65% 1004.1 hPa - - - -
1788292802 19.44° C 64% 1004.1 hPa - - - -
1788292202 19.44° C 64% 1004.1 hPa - - - -
1788291601 20° C 63% 1004 hPa - - - -

* Rain since midnight (hover to see other rain measurements)
** Current wind speed in m/s (hover to see current wind gust speed)